| time (UTC) | temp C | wind direction | speed KPH | gust KPH | rain 1hr cm | rain 24hr cm | rain mn cm | humidity % | barometer mb |
| 20260502233503 | 9 | 360 | 0.0 | 0.0 | 0.18 | 1.02 | 0.13 | 95 | 1011.3 |
| 20260502233012 | 9 | 350 | 0.0 | 0.0 | 0.18 | 0.99 | 0.10 | 95 | 1011.2 |
| 20260502232503 | 9 | 5 | 0.0 | 0.0 | 0.20 | 0.99 | 0.10 | 95 | 1011.2 |
| 20260502232003 | 9 | 5 | 0.0 | 0.0 | 0.20 | 0.97 | 0.08 | 95 | 1011.3 |
| 20260502231508 | 9 | 5 | 0.0 | 0.0 | 0.20 | 0.94 | 0.05 | 95 | 1011.3 |
| 20260502231003 | 9 | 5 | 0.0 | 0.0 | 0.23 | 0.94 | 0.05 | 95 | 1011.3 |
| 20260502230504 | 9 | 5 | 0.0 | 0.0 | 0.20 | 0.91 | 0.03 | 95 | 1011.3 |
| 20260502230010 | 9 | 5 | 0.0 | 0.0 | 0.20 | 0.89 | 0.00 | 95 | 1011.4 |
| 20260502225505 | 9 | 5 | 0.0 | 0.0 | 0.23 | 0.89 | 0.89 | 95 | 1011.4 |
| 20260502225004 | 9 | 5 | 0.0 | 0.0 | 0.23 | 0.86 | 0.86 | 95 | 1011.3 |
| 20260502224507 | 9 | 5 | 0.0 | 0.0 | 0.25 | 0.86 | 0.86 | 95 | 1011.3 |
| 20260502224003 | 9 | 5 | 0.0 | 0.0 | 0.25 | 0.84 | 0.84 | 95 | 1011.3 |
| 20260502223503 | 9 | 5 | 0.0 | 0.0 | 0.25 | 0.84 | 0.84 | 95 | 1011.3 |
| 20260502223032 | 9 | 5 | 0.0 | 0.0 | 0.25 | 0.81 | 0.81 | 95 | 1011.3 |
| 20260502222503 | 9 | 5 | 0.0 | 0.0 | 0.25 | 0.79 | 0.79 | 95 | 1011.3 |
| 20260502222005 | 9 | 5 | 0.0 | 0.0 | 0.23 | 0.76 | 0.76 | 95 | 1011.3 |
| 20260502221510 | 9 | 5 | 0.0 | 0.0 | 0.23 | 0.74 | 0.74 | 95 | 1011.4 |
| 20260502221008 | 10 | 5 | 0.0 | 0.0 | 0.23 | 0.71 | 0.71 | 95 | 1011.3 |
| 20260502220504 | 10 | 5 | 0.0 | 0.0 | 0.23 | 0.71 | 0.71 | 94 | 1011.3 |
| 20260502220009 | 10 | 5 | 0.0 | 0.0 | 0.20 | 0.69 | 0.69 | 94 | 1011.3 |
| 20260502215504 | 10 | 28 | 0.0 | 0.0 | 0.20 | 0.66 | 0.66 | 94 | 1011.4 |
| 20260502215007 | 10 | 5 | 0.0 | 0.0 | 0.18 | 0.64 | 0.64 | 94 | 1011.4 |
| 20260502214512 | 10 | 349 | 0.0 | 0.0 | 0.18 | 0.61 | 0.61 | 94 | 1011.4 |
| 20260502214011 | 10 | 9 | 0.0 | 0.0 | 0.15 | 0.58 | 0.58 | 94 | 1011.5 |
| 20260502213507 | 10 | 5 | 0.0 | 0.0 | 0.18 | 0.58 | 0.58 | 94 | 1011.6 |
| 20260502213011 | 10 | 5 | 0.0 | 0.0 | 0.18 | 0.56 | 0.56 | 94 | 1011.6 |
| 20260502212503 | 10 | 5 | 0.0 | 0.0 | 0.18 | 0.53 | 0.53 | 94 | 1011.6 |
| 20260502212005 | 10 | 5 | 0.0 | 0.0 | 0.18 | 0.53 | 0.53 | 94 | 1011.6 |
| 20260502211510 | 10 | 22 | 0.0 | 0.0 | 0.18 | 0.51 | 0.51 | 94 | 1011.7 |
| 20260502211007 | 10 | 22 | 0.0 | 0.0 | 0.18 | 0.48 | 0.48 | 94 | 1011.7 |
| 20260502210513 | 10 | 22 | 0.0 | 0.0 | 0.20 | 0.48 | 0.48 | 94 | 1011.7 |
| 20260502210014 | 10 | 47 | 0.0 | 0.0 | 0.23 | 0.48 | 0.48 | 94 | 1011.8 |
| 20260502205508 | 10 | 53 | 0.0 | 0.0 | 0.25 | 0.46 | 0.46 | 93 | 1011.8 |
| 20260502205004 | 10 | 53 | 0.0 | 0.0 | 0.25 | 0.46 | 0.46 | 93 | 1011.9 |
| 20260502204512 | 10 | 53 | 0.0 | 0.0 | 0.25 | 0.43 | 0.43 | 93 | 1011.9 |
| 20260502204004 | 10 | 9 | 0.0 | 0.0 | 0.25 | 0.43 | 0.43 | 93 | 1011.9 |
| 20260502203506 | 10 | 5 | 0.0 | 0.0 | 0.25 | 0.41 | 0.41 | 93 | 1012.0 |
| 20260502203016 | 10 | 5 | 0.0 | 0.0 | 0.23 | 0.38 | 0.38 | 93 | 1012.0 |
| 20260502202506 | 10 | 5 | 0.0 | 0.0 | 0.23 | 0.36 | 0.36 | 93 | 1012.0 |
| 20260502202007 | 10 | 5 | 0.0 | 0.0 | 0.25 | 0.36 | 0.36 | 92 | 1012.1 |
| 20260502201517 | 10 | 5 | 0.0 | 0.0 | 0.23 | 0.33 | 0.33 | 92 | 1012.2 |
| 20260502201007 | 10 | 24 | 0.0 | 0.0 | 0.23 | 0.30 | 0.30 | 91 | 1012.2 |
| 20260502200504 | 10 | 96 | 0.0 | 0.0 | 0.23 | 0.28 | 0.28 | 90 | 1012.2 |
| 20260502200015 | 10 | 103 | 0.0 | 0.0 | 0.20 | 0.25 | 0.25 | 90 | 1012.2 |
| 20260502195507 | 10 | 113 | 0.0 | 0.0 | 0.18 | 0.20 | 0.20 | 90 | 1012.2 |
| 20260502195005 | 11 | 5 | 0.0 | 0.0 | 0.18 | 0.20 | 0.20 | 90 | 1012.2 |
| 20260502194517 | 11 | 5 | 0.0 | 0.0 | 0.15 | 0.18 | 0.18 | 90 | 1012.3 |
| 20260502194004 | 11 | 5 | 0.0 | 0.0 | 0.18 | 0.18 | 0.18 | 90 | 1012.2 |
| 20260502193506 | 11 | 5 | 0.0 | 0.0 | 0.15 | 0.15 | 0.15 | 89 | 1012.2 |
| 20260502192512 | 11 | 5 | 0.0 | 0.0 | 0.13 | 0.13 | 0.13 | 89 | 1012.2 |
| 20260502192007 | 11 | 5 | 0.0 | 0.0 | 0.10 | 0.10 | 0.10 | 88 | 1012.1 |
| 20260502191518 | 11 | 5 | 0.0 | 0.0 | 0.10 | 0.10 | 0.10 | 88 | 1012.1 |
| 20260502191003 | 11 | 5 | 0.0 | 0.0 | 0.08 | 0.08 | 0.08 | 87 | 1012.2 |
| 20260502190507 | 11 | 5 | 0.0 | 0.0 | 0.05 | 0.05 | 0.05 | 87 | 1012.1 |
| 20260502190020 | 11 | 5 | 0.0 | 0.0 | 0.05 | 0.05 | 0.05 | 87 | 1012.2 |
| 20260502185504 | 11 | 5 | 0.0 | 0.0 | 0.03 | 0.03 | 0.03 | 86 | 1012.2 |
| 20260502185006 | 11 | 5 | 0.0 | 0.0 | 0.03 | 0.03 | 0.03 | 86 | 1012.2 |
| 20260502184504 | 12 | 5 | 0.0 | 0.0 | 0.03 | 0.03 | 0.03 | 86 | 1012.3 |
| 20260502184003 | 12 | 5 | 0.0 | 0.0 | 0.00 | 0.00 | 0.00 | 85 | 1012.2 |
| 20260502183503 | 12 | 5 | 0.0 | 0.0 | 0.00 | 0.00 | 0.00 | 85 | 1012.2 |
| 20260502183013 | 12 | 5 | 0.0 | 0.0 | 0.00 | 0.00 | 0.00 | 84 | 1012.2 |
| 20260502182502 | 12 | 5 | 0.0 | 3.2 | 0.00 | 0.00 | 0.00 | 83 | 1012.3 |
| 20260502182003 | 12 | 20 | 0.0 | 4.8 | 0.00 | 0.00 | 0.00 | 83 | 1012.4 |
| 20260502181513 | 12 | 48 | 1.6 | 6.4 | 0.00 | 0.00 | 0.00 | 82 | 1012.4 |
| 20260502181005 | 12 | 46 | 3.2 | 6.4 | 0.00 | 0.00 | 0.00 | 81 | 1012.3 |
| 20260502180506 | 12 | 40 | 3.2 | 6.4 | 0.00 | 0.00 | 0.00 | 79 | 1012.4 |
| 20260502170509 | 13 | 61 | 6.4 | 12.9 | 0.00 | 0.00 | 0.00 | 76 | 1012.6 |
| 20260502164003 | 14 | 67 | 6.4 | 11.3 | 0.00 | 0.00 | 0.00 | 70 | 1012.7 |
| 20260502163504 | 14 | 64 | 8.0 | 11.3 | 0.00 | 0.00 | 0.00 | 70 | 1012.7 |
| 20260502163021 | 14 | 85 | 6.4 | 11.3 | 0.00 | 0.00 | 0.00 | 68 | 1012.7 |
| 20260502162503 | 14 | 66 | 4.8 | 11.3 | 0.00 | 0.00 | 0.00 | 68 | 1012.7 |
| 20260502162006 | 14 | 81 | 8.0 | 11.3 | 0.00 | 0.00 | 0.00 | 69 | 1012.8 |
| 20260502161518 | 14 | 80 | 4.8 | 8.0 | 0.00 | 0.00 | 0.00 | 71 | 1012.8 |
| 20260502161003 | 14 | 55 | 4.8 | 12.9 | 0.00 | 0.00 | 0.00 | 69 | 1012.8 |
| 20260502160502 | 14 | 105 | 8.0 | 12.9 | 0.00 | 0.00 | 0.00 | 69 | 1012.9 |
| 20260502152010 | 15 | 112 | 3.2 | 12.9 | 0.00 | 0.03 | 0.00 | 65 | 1013.5 |
| 20260502151508 | 15 | 91 | 6.4 | 12.9 | 0.00 | 0.05 | 0.00 | 68 | 1013.5 |
| 20260502151002 | 15 | 79 | 6.4 | 9.7 | 0.00 | 0.08 | 0.00 | 65 | 1013.5 |
| 20260502150504 | 15 | 76 | 1.6 | 12.9 | 0.00 | 0.13 | 0.00 | 62 | 1013.6 |
| 20260502130507 | 16 | 247 | 3.2 | 6.4 | 0.00 | 0.23 | 0.00 | 61 | 1014.7 |
| 20260502123506 | 16 | 340 | 1.6 | 8.0 | 0.00 | 0.23 | 0.00 | 59 | 1015.0 |
| 20260502123017 | 16 | 263 | 3.2 | 8.0 | 0.00 | 0.23 | 0.00 | 58 | 1015.1 |
| 20260502122506 | 16 | 244 | 3.2 | 8.0 | 0.00 | 0.23 | 0.00 | 61 | 1015.2 |
| 20260502122011 | 16 | 181 | 1.6 | 11.3 | 0.00 | 0.23 | 0.00 | 59 | 1015.3 |
| 20260502121514 | 16 | 205 | 4.8 | 12.9 | 0.00 | 0.23 | 0.00 | 61 | 1015.4 |
| 20260502121008 | 16 | 202 | 4.8 | 12.9 | 0.00 | 0.23 | 0.00 | 64 | 1015.6 |
| 20260502120514 | 16 | 181 | 4.8 | 11.3 | 0.00 | 0.23 | 0.00 | 60 | 1015.6 |
| 20260502115504 | 16 | 232 | 6.4 | 11.3 | 0.00 | 0.25 | 0.00 | 66 | 1015.7 |
| 20260502115007 | 16 | 192 | 1.6 | 11.3 | 0.00 | 0.25 | 0.00 | 65 | 1015.8 |
| 20260502114527 | 15 | 265 | 1.6 | 11.3 | 0.00 | 0.25 | 0.00 | 63 | 1015.8 |
| 20260502114006 | 15 | 261 | 6.4 | 11.3 | 0.00 | 0.25 | 0.00 | 64 | 1015.8 |
| 20260502113506 | 15 | 235 | 3.2 | 11.3 | 0.00 | 0.25 | 0.00 | 66 | 1015.8 |
| 20260502113014 | 15 | 236 | 6.4 | 11.3 | 0.00 | 0.30 | 0.00 | 65 | 1015.9 |
| 20260502112506 | 15 | 233 | 3.2 | 11.3 | 0.00 | 0.33 | 0.00 | 63 | 1016.0 |
| 20260502112007 | 15 | 208 | 4.8 | 11.3 | 0.00 | 0.33 | 0.00 | 65 | 1016.1 |
| 20260502111520 | 14 | 171 | 0.0 | 6.4 | 0.00 | 0.36 | 0.00 | 67 | 1016.1 |
| 20260502111007 | 14 | 177 | 1.6 | 12.9 | 0.00 | 0.38 | 0.00 | 67 | 1016.2 |
| 20260502110504 | 14 | 262 | 4.8 | 12.9 | 0.00 | 0.41 | 0.00 | 66 | 1016.1 |
| 20260502110021 | 14 | 248 | 6.4 | 12.9 | 0.00 | 0.41 | 0.00 | 67 | 1016.2 |
| 20260502105514 | 14 | 173 | 3.2 | 12.9 | 0.00 | 0.43 | 0.00 | 67 | 1016.3 |
| 20260502105008 | 14 | 243 | 6.4 | 12.9 | 0.00 | 0.43 | 0.00 | 68 | 1016.2 |
| 20260502104519 | 13 | 219 | 3.2 | 8.0 | 0.00 | 0.43 | 0.00 | 67 | 1016.2 |
| 20260502104008 | 13 | 240 | 3.2 | 11.3 | 0.00 | 0.43 | 0.00 | 71 | 1016.2 |
| 20260502103512 | 13 | 259 | 1.6 | 11.3 | 0.00 | 0.43 | 0.00 | 71 | 1016.2 |
| 20260502103011 | 13 | 286 | 3.2 | 11.3 | 0.00 | 0.43 | 0.00 | 73 | 1016.2 |
| 20260502102507 | 13 | 279 | 6.4 | 16.1 | 0.00 | 0.43 | 0.00 | 70 | 1016.2 |
| 20260502102007 | 13 | 261 | 8.0 | 16.1 | 0.00 | 0.43 | 0.00 | 73 | 1016.2 |
| 20260502101520 | 13 | 264 | 3.2 | 12.9 | 0.00 | 0.43 | 0.00 | 75 | 1016.2 |
| 20260502101004 | 13 | 233 | 3.2 | 12.9 | 0.00 | 0.43 | 0.00 | 73 | 1016.3 |
| 20260502100508 | 12 | 232 | 3.2 | 11.3 | 0.00 | 0.43 | 0.00 | 75 | 1016.2 |
| 20260502091516 | 12 | 304 | 3.2 | 12.9 | 0.00 | 0.43 | 0.00 | 79 | 1017.0 |
| 20260502091006 | 12 | 248 | 6.4 | 12.9 | 0.00 | 0.43 | 0.00 | 78 | 1016.9 |
| 20260502090503 | 11 | 221 | 3.2 | 12.9 | 0.00 | 0.43 | 0.00 | 79 | 1016.8 |
| 20260502071510 | 10 | 226 | 3.2 | 14.5 | 0.00 | 0.43 | 0.00 | 84 | 1017.0 |
| 20260502071006 | 10 | 227 | 3.2 | 16.1 | 0.00 | 0.43 | 0.00 | 86 | 1017.0 |
| 20260502070507 | 10 | 172 | 3.2 | 16.1 | 0.00 | 0.43 | 0.00 | 85 | 1017.0 |
| 20260502070019 | 10 | 244 | 4.8 | 11.3 | 0.00 | 0.43 | 0.00 | 87 | 1017.0 |
| 20260502065507 | 10 | 173 | 4.8 | 11.3 | 0.00 | 0.43 | 0.00 | 88 | 1017.0 |
| 20260502065006 | 10 | 196 | 4.8 | 11.3 | 0.00 | 0.43 | 0.00 | 91 | 1017.0 |
| 20260502064513 | 10 | 171 | 4.8 | 12.9 | 0.00 | 0.43 | 0.00 | 91 | 1016.8 |
| 20260502064006 | 9 | 184 | 6.4 | 12.9 | 0.00 | 0.43 | 0.00 | 92 | 1016.6 |
| 20260502063507 | 9 | 175 | 6.4 | 9.7 | 0.00 | 0.43 | 0.00 | 92 | 1016.6 |
| 20260502063023 | 8 | 180 | 6.4 | 8.0 | 0.00 | 0.43 | 0.00 | 92 | 1016.6 |
| 20260502062506 | 8 | 195 | 3.2 | 6.4 | 0.00 | 0.43 | 0.00 | 93 | 1016.5 |
| 20260502062012 | 8 | 196 | 3.2 | 6.4 | 0.00 | 0.43 | 0.00 | 93 | 1016.6 |
| 20260502061526 | 8 | 154 | 3.2 | 6.4 | 0.00 | 0.43 | 0.00 | 94 | 1016.7 |
| 20260502061003 | 8 | 130 | 3.2 | 6.4 | 0.00 | 0.43 | 0.00 | 95 | 1016.5 |
| 20260502060511 | 7 | 172 | 3.2 | 6.4 | 0.00 | 0.43 | 0.00 | 95 | 1016.5 |
| 20260502060012 | 7 | 167 | 3.2 | 6.4 | 0.00 | 0.43 | 0.00 | 95 | 1016.5 |
| 20260502055503 | 7 | 167 | 0.0 | 3.2 | 0.00 | 0.43 | 0.00 | 95 | 1016.6 |
| 20260502055006 | 7 | 140 | 0.0 | 3.2 | 0.00 | 0.43 | 0.00 | 95 | 1016.7 |
| 20260502054518 | 7 | 175 | 1.6 | 3.2 | 0.00 | 0.43 | 0.00 | 95 | 1016.7 |
| 20260502054005 | 7 | 207 | 0.0 | 4.8 | 0.00 | 0.43 | 0.00 | 95 | 1016.7 |
| 20260502053506 | 6 | 202 | 1.6 | 4.8 | 0.00 | 0.43 | 0.00 | 94 | 1016.7 |
| 20260502053022 | 6 | 168 | 3.2 | 3.2 | 0.00 | 0.43 | 0.00 | 94 | 1016.7 |
| 20260502052507 | 6 | 200 | 0.0 | 3.2 | 0.00 | 0.43 | 0.00 | 94 | 1016.6 |
| 20260502052008 | 6 | 211 | 0.0 | 3.2 | 0.00 | 0.43 | 0.00 | 94 | 1016.7 |
| 20260502051527 | 6 | 196 | 1.6 | 3.2 | 0.00 | 0.43 | 0.00 | 94 | 1016.6 |
| 20260502051006 | 6 | 206 | 1.6 | 3.2 | 0.00 | 0.43 | 0.00 | 95 | 1016.6 |
| 20260502050509 | 6 | 197 | 1.6 | 3.2 | 0.00 | 0.43 | 0.00 | 95 | 1016.6 |
| 20260502050015 | 6 | 186 | 1.6 | 3.2 | 0.00 | 0.43 | 0.00 | 95 | 1016.7 |
| 20260502045508 | 7 | 178 | 0.0 | 3.2 | 0.00 | 0.43 | 0.00 | 95 | 1016.7 |
| 20260502045008 | 6 | 168 | 1.6 | 4.8 | 0.00 | 0.43 | 0.00 | 95 | 1016.7 |
| 20260502044513 | 7 | 219 | 1.6 | 4.8 | 0.00 | 0.43 | 0.00 | 95 | 1016.7 |
| 20260502044006 | 7 | 199 | 0.0 | 0.0 | 0.00 | 0.43 | 0.00 | 94 | 1016.7 |
| 20260502043507 | 7 | 144 | 0.0 | 1.6 | 0.00 | 0.43 | 0.00 | 94 | 1016.7 |
| 20260502043024 | 7 | 200 | 0.0 | 3.2 | 0.00 | 0.43 | 0.00 | 95 | 1016.7 |
| 20260502042506 | 7 | 184 | 1.6 | 6.4 | 0.00 | 0.43 | 0.00 | 95 | 1016.7 |
| 20260502042011 | 7 | 208 | 1.6 | 6.4 | 0.00 | 0.43 | 0.00 | 1016.7 | |
| 20260502041524 | 7 | 192 | 3.2 | 4.8 | 0.00 | 0.43 | 0.00 | 96 | 1016.7 |
| 20260502041011 | 7 | 192 | 1.6 | 4.8 | 0.00 | 0.43 | 0.00 | 96 | 1016.8 |
| 20260502040507 | 7 | 175 | 1.6 | 4.8 | 0.00 | 0.43 | 0.00 | 96 | 1016.9 |
| 20260502040021 | 7 | 159 | 1.6 | 3.2 | 0.00 | 0.43 | 0.00 | 96 | 1016.9 |
| 20260502035510 | 7 | 157 | 1.6 | 3.2 | 0.00 | 0.43 | 0.00 | 96 | 1017.0 |
| 20260502035009 | 7 | 173 | 0.0 | 3.2 | 0.00 | 0.43 | 0.00 | 96 | 1017.0 |
| 20260502034520 | 6 | 182 | 1.6 | 6.4 | 0.00 | 0.43 | 0.00 | 96 | 1017.1 |
| 20260502034008 | 6 | 231 | 0.0 | 6.4 | 0.00 | 0.43 | 0.00 | 96 | 1017.2 |
| 20260502033510 | 6 | 186 | 1.6 | 4.8 | 0.00 | 0.43 | 0.00 | 96 | 1017.2 |
| 20260502033016 | 6 | 214 | 1.6 | 4.8 | 0.00 | 0.43 | 0.00 | 96 | 1017.2 |
| 20260502032507 | 6 | 181 | 1.6 | 4.8 | 0.00 | 0.43 | 0.00 | 95 | 1017.2 |
| 20260502032008 | 6 | 219 | 1.6 | 4.8 | 0.00 | 0.43 | 0.00 | 95 | 1017.2 |
| 20260502031522 | 6 | 212 | 1.6 | 4.8 | 0.00 | 0.43 | 0.00 | 95 | 1017.2 |
| 20260502031006 | 6 | 163 | 1.6 | 3.2 | 0.00 | 0.43 | 0.00 | 95 | 1017.2 |
| 20260502030507 | 6 | 199 | 0.0 | 3.2 | 0.00 | 0.43 | 0.00 | 95 | 1017.3 |
| 20260502030024 | 6 | 219 | 1.6 | 3.2 | 0.00 | 0.43 | 0.00 | 95 | 1017.4 |
| 20260502025510 | 6 | 229 | 1.6 | 4.8 | 0.00 | 0.43 | 0.00 | 95 | 1017.4 |
| 20260502025007 | 6 | 236 | 1.6 | 4.8 | 0.00 | 0.43 | 0.00 | 95 | 1017.4 |
| 20260502024530 | 6 | 207 | 1.6 | 4.8 | 0.00 | 0.43 | 0.00 | 95 | 1017.4 |
| 20260502024010 | 6 | 200 | 1.6 | 6.4 | 0.00 | 0.43 | 0.00 | 95 | 1017.4 |
| 20260502023505 | 6 | 159 | 1.6 | 6.4 | 0.00 | 0.43 | 0.00 | 95 | 1017.4 |
| 20260502023025 | 6 | 175 | 0.0 | 3.2 | 0.00 | 0.43 | 0.00 | 94 | 1017.5 |
| 20260502022510 | 6 | 175 | 0.0 | 3.2 | 0.00 | 0.43 | 0.00 | 94 | 1017.5 |
| 20260502022008 | 6 | 175 | 0.0 | 3.2 | 0.00 | 0.43 | 0.00 | 94 | 1017.6 |
| 20260502021521 | 6 | 175 | 1.6 | 4.8 | 0.00 | 0.43 | 0.00 | 94 | 1017.6 |
| 20260502021009 | 6 | 185 | 0.0 | 6.4 | 0.00 | 0.43 | 0.00 | 95 | 1017.6 |
| 20260502020509 | 6 | 178 | 1.6 | 6.4 | 0.00 | 0.43 | 0.00 | 95 | 1017.6 |
| 20260502020022 | 6 | 229 | 1.6 | 3.2 | 0.00 | 0.43 | 0.00 | 94 | 1017.6 |
| 20260502015510 | 6 | 188 | 1.6 | 3.2 | 0.00 | 0.43 | 0.00 | 94 | 1017.6 |
| 20260502015009 | 6 | 148 | 0.0 | 3.2 | 0.00 | 0.43 | 0.00 | 94 | 1017.7 |
| 20260502014509 | 6 | 190 | 1.6 | 4.8 | 0.00 | 0.43 | 0.00 | 94 | 1017.7 |
| 20260502014003 | 6 | 208 | 1.6 | 4.8 | 0.00 | 0.43 | 0.00 | 94 | 1017.8 |
| 20260502013503 | 6 | 188 | 0.0 | 3.2 | 0.00 | 0.43 | 0.00 | 94 | 1017.9 |
| 20260502013014 | 6 | 191 | 1.6 | 3.2 | 0.00 | 0.43 | 0.00 | 94 | 1018.0 |
| 20260502012505 | 6 | 207 | 1.6 | 4.8 | 0.00 | 0.43 | 0.00 | 94 | 1018.0 |
| 20260502012007 | 6 | 167 | 1.6 | 6.4 | 0.00 | 0.43 | 0.00 | 94 | 1018.0 |
| 20260502011512 | 7 | 184 | 4.8 | 6.4 | 0.00 | 0.43 | 0.00 | 94 | 1018.1 |
| 20260502011007 | 7 | 198 | 1.6 | 4.8 | 0.00 | 0.43 | 0.00 | 94 | 1018.1 |
| 20260502010506 | 7 | 205 | 3.2 | 8.0 | 0.00 | 0.43 | 0.00 | 94 | 1018.2 |
| 20260502010017 | 7 | 194 | 3.2 | 8.0 | 0.00 | 0.43 | 0.00 | 94 | 1018.3 |
| 20260502005507 | 7 | 192 | 3.2 | 4.8 | 0.00 | 0.43 | 0.00 | 95 | 1018.3 |
| 20260502005012 | 7 | 191 | 1.6 | 3.2 | 0.00 | 0.43 | 0.00 | 1018.4 | |
| 20260502004509 | 7 | 173 | 1.6 | 3.2 | 0.00 | 0.43 | 0.00 | 95 | 1018.4 |
| 20260502004004 | 7 | 135 | 1.6 | 3.2 | 0.00 | 0.43 | 0.00 | 95 | 1018.5 |
| 20260502003502 | 7 | 142 | 0.0 | 3.2 | 0.00 | 0.43 | 0.00 | 95 | 1018.5 |
| 20260502003006 | 7 | 55 | 0.0 | 3.2 | 0.00 | 0.43 | 0.00 | 95 | 1018.6 |
| 20260502002502 | 7 | 98 | 0.0 | 3.2 | 0.00 | 0.43 | 0.00 | 95 | 1018.6 |
| 20260502002006 | 7 | 77 | 0.0 | 3.2 | 0.00 | 0.43 | 0.00 | 95 | 1018.6 |
| 20260502001512 | 7 | 113 | 0.0 | 3.2 | 0.00 | 0.43 | 0.00 | 95 | 1018.5 |
| 20260502001004 | 7 | 142 | 0.0 | 3.2 | 0.00 | 0.43 | 0.00 | 95 | 1018.5 |
| 20260502000503 | 7 | 133 | 0.0 | 6.4 | 0.00 | 0.43 | 0.00 | 95 | 1018.6 |
| 20260502000018 | 6 | 133 | 1.6 | 6.4 | 0.00 | 0.43 | 0.00 | 95 | 1018.6 |
| 20260501235507 | 6 | 162 | 1.6 | 8.0 | 0.00 | 0.43 | 0.00 | 95 | 1018.7 |
| 20260501235009 | 6 | 170 | 3.2 | 8.0 | 0.00 | 0.43 | 0.00 | 95 | 1018.7 |
| 20260501234518 | 6 | 159 | 0.0 | 8.0 | 0.00 | 0.43 | 0.00 | 95 | 1018.8 |
| 20260501234007 | 6 | 170 | 3.2 | 8.0 | 0.00 | 0.43 | 0.00 | 95 | 1018.8 |